Regional Weather Roundup
Issued by NWS Northern Indiana

Home | Current Version | Previous Version | Graphics & Text | Print | Product List | Glossary On
Versions: 1 2 3 4 5 6 7 8 9 10 11 12 13 14 15 16 17 18 19 20 21 22 23 24 25 26 27 28 29 30 31 32 33 34 35 36 37 38 39 40 41 42 43 44 45 46 47 48 49 50
000
ASUS43 KIWX 302200
RWRIWX

KIWX WEATHER ROUNDUP
NATIONAL WEATHER SERVICE NORTHERN INDIANA
600 PM EDT THU JUL 30 2015

NOTE: "FAIR" INDICATES FEW OR NO CLOUDS BELOW 12,000 FEET WITH NO
SIGNIFICANT WEATHER AND/OR OBSTRUCTIONS TO VISIBILITY.

* THESE STATIONS ARE NOT UNDER NWS QUALITY CONTROL. THEY ALSO MAY NOT
  REPORT WEATHER SUCH AS PRECIPITATION OR FOG.

INZ001>027-302300-
NORTHERN INDIANA

CITY           SKY/WX    TMP DP  RH WIND       PRES   REMARKS
GARY*          MOSUNNY   88  52  29 W14G30    30.02F
KNOX*          MOSUNNY   82  55  39 W3        30.02F
SOUTH BEND     SUNNY     85  54  34 NW14      30.03F
ELKHART*       SUNNY     84  50  30 NW15      30.03F
GOSHEN         SUNNY     82  56  40 NW13G21   30.03F
MONTICELLO*    MOSUNNY   84  58  40 NW12      30.04F
WARSAW*        SUNNY     82  55  39 NW13      30.04F
ANGOLA*        SUNNY     82  59  44 NW13      30.02S
FORT WAYNE     MOSUNNY   84  55  36 W16G22    30.03F
PERU/GRISSOM   SUNNY     84  57  39 W8        30.04F

$$
INZ028>050-302300-
CENTRAL INDIANA

CITY           SKY/WX    TMP DP  RH WIND       PRES   REMARKS
LAFAYETTE      SUNNY     83  59  44 W13       30.05F
KOKOMO*        SUNNY     84  57  39 NW9       30.05S
MUNCIE*        SUNNY     82  56  40 NW15      30.05F
INDIANAPOLIS   MOSUNNY   84  54  35 NW15      30.06F

$$
MIZ043>046-050>051-056>058-064>065-071>073-077>080-302300-
SOUTHWEST LOWER MICHIGAN

CITY           SKY/WX    TMP DP  RH WIND       PRES   REMARKS
BATTLE CREEK   MOSUNNY   83  56  39 W17       30.01S
BENTON HARBOR  SUNNY     84  59  42 W14       30.01F
COLDWATER*     SUNNY     81  51  34 W14G21    30.01S
HILLSDALE*     MOSUNNY   82  53  37 W15G25    30.01S
HOLLAND        SUNNY     83  60  45 W13       29.99F
GRAND RAPIDS   MOSUNNY   84  55  36 W23G29    29.97F
KALAMAZOO      SUNNY     83  55  38 W17G23    30.00F
STURGIS*       SUNNY     81  55  41 NW9G17    30.02S
THREE RIVERS*  FAIR      83  54  36 W12G21    30.02S

$$
OHZ001>008-015>018-024>025-302300-
NORTHWEST OHIO

CITY           SKY/WX    TMP DP  RH WIND       PRES   REMARKS
DEFIANCE       MOSUNNY   85  54  34 NW15G22   30.00S
FINDLAY        MOSUNNY   84  57  39 W16G25    29.99S
TOLEDO EXPRESS SUNNY     84  56  38 W16       29.97S
TOLEDO METCALF MOSUNNY   85  55  35 W17       29.97F
LIMA           SUNNY     82  56  40 NW8       30.02S

$$
AND FOR LAKE MICHIGAN COASTAL AND OPEN LAKE BUOY OBSERVATIONS

STATION/POSITION TEMP    WIND        PRES    VSBY  WAVE
                 AIR SEA DIR/SP/G                  HT/PER
                 (F)     (DEG/KT/KT) (MB)    (MI)  (FT/S)
CALUMET HARBOR    87     240/  5/ 14   N/A
MICHIGAN CITY     79     210/  4/  4   N/A
BURNS HARBOR      85      60/  1/  3 1017.3F
SAINT JOSEPH      77     190/  9/ 10 1017.6F
4 MI NW BRIDGMAN  76 74  250/  8/ 10   N/A           2/ 4
MICHIGAN CITY     78 75  220/  4/  4   N/A           1/ 4

$$
&&


USA.gov is the U.S. government's official web portal to all federal, state and local government web resources and services.